Theta_e
332 333 334 335 334 335 336 333 331 329 330 332 331 329 326 322 320 327 331 331 331 332 331 330 329 329 330 330 329 327 324 323 324 323 322 320 315 311 311 312 317 320 320
335 333 332 333 334 334 335 335 333 331 330 330 331 330 327 324 322 328 332 331 332 332 330 330 330 328 329 330 330 329 327 326 326 325 324 324 321 316 312 310 313 317 321
338 335 334 334 333 335 336 336 335 333 332 331 331 331 329 326 323 323 328 331 331 331 330 330 329 326 328 329 330 330 329 329 326 326 326 325 324 322 319 313 308 310 311
332 335 337 335 333 332 333 335 335 334 334 333 332 331 330 329 326 324 331 332 332 331 329 330 330 326 327 328 329 329 330 330 330 329 327 326 325 323 321 318 313 308 306
321 326 331 335 333 333 333 331 331 333 336 335 333 332 331 330 332 332 331 331 330 332 331 330 329 329 327 326 326 327 328 329 329 329 328 326 325 325 323 321 317 310 310
312 319 328 329 327 322 334 332 331 332 333 335 335 334 334 332 331 333 332 332 331 332 332 331 329 327 329 328 328 326 326 326 326 328 326 325 325 323 323 322 321 315 312
306 308 320 324 325 327 327 329 333 334 334 333 334 334 335 334 331 334 334 334 333 332 333 332 331 330 330 329 329 328 328 327 326 326 325 324 325 325 324 323 321 318 315
307 307 309 318 324 329 327 326 332 334 334 333 332 334 335 335 333 333 334 334 334 333 333 332 332 332 332 330 328 328 329 328 327 326 325 325 326 325 325 323 321 319 315
306 307 307 310 319 327 328 323 325 326 333 333 332 332 333 333 334 333 334 334 334 334 334 333 333 331 331 330 330 327 327 327 328 327 326 325 324 325 325 323 322 319 317
306 306 307 307 312 321 325 326 324 324 326 328 330 330 330 328 332 332 333 332 334 333 333 333 333 331 330 330 329 328 328 328 328 328 327 326 325 325 325 325 322 320 319
304 305 306 306 307 312 320 327 325 324 324 325 325 331 329 328 327 329 331 330 331 332 333 333 333 332 331 331 330 329 329 329 328 328 328 327 326 326 325 323 322 321 319
303 304 305 305 306 307 312 323 326 326 324 328 327 331 329 330 329 329 329 330 329 329 331 332 333 332 332 331 330 330 330 329 329 328 328 327 326 327 325 324 324 321 320
299 301 304 304 305 306 308 314 325 325 326 330 329 327 327 328 330 330 329 328 328 328 327 329 330 330 330 331 330 330 328 327 328 328 327 326 324 325 325 325 324 324 322
298 300 301 302 305 306 308 308 313 322 324 326 329 330 330 329 329 330 329 329 327 327 328 327 327 326 327 328 329 329 328 327 327 328 326 324 323 323 325 325 324 324 324
297 298 300 301 303 306 309 309 308 312 317 323 326 329 330 330 329 324 323 323 320 325 326 329 329 327 325 325 327 328 327 326 327 327 326 325 323 323 323 324 324 323 323
297 299 300 304 307 307 309 310 311 310 311 313 318 326 328 327 326 325 324 323 322 325 328 328 328 329 328 327 326 326 325 326 327 327 327 326 325 325 324 323 323 323 323
297 299 302 306 307 307 309 311 313 313 312 311 312 320 326 325 324 326 324 324 323 324 327 327 325 328 327 328 328 328 326 326 328 328 327 326 325 325 325 323 323 323 323
295 298 302 305 308 309 309 310 312 315 315 317 318 320 324 324 325 325 325 322 323 324 325 325 323 327 328 327 327 327 327 327 328 328 327 326 326 325 325 325 323 323 323
294 297 301 304 306 308 309 310 310 311 317 316 318 325 322 321 326 326 326 325 322 323 324 322 323 325 326 327 327 326 327 326 326 325 326 325 325 325 324 325 323 323 323
292 292 293 295 299 301 305 307 310 313 313 316 318 322 324 325 325 326 327 324 322 321 320 321 321 326 327 327 327 326 326 325 323 323 323 323 324 325 324 324 324 323 323
293 293 294 295 294 294 299 302 303 307 311 311 313 314 317 318 320 320 319 320 324 324 322 325 328 327 326 328 327 327 326 324 323 323 323 324 323 323 322 324 324 323 322
293 295 296 295 294 292 295 295 298 300 304 304 304 304 307 308 311 317 317 317 319 323 325 327 327 326 325 325 326 326 326 325 325 324 324 323 323 322 322 322 322 321 320
294 294 293 291 292 293 294 294 294 295 297 297 298 299 301 301 301 304 306 307 308 317 318 322 323 320 321 321 323 324 323 323 324 323 323 322 322 321 319 319 318 319 319
285 285 285 287 289 289 292 294 295 294 295 294 294 294 295 297 298 301 302 305 305 307 308 306 307 308 304 306 306 314 312 318 321 319 317 315 317 316 317 317 316 316 317
283 283 283 283 283 283 285 289 293 293 292 292 293 292 294 292 293 298 299 301 300 300 299 302 303 302 305 305 303 305 306 307 310 310 308 309 311 311 312 313 314 315 315
282 282 282 281 281 281 282 283 284 285 286 288 289 290 290 290 292 294 296 295 295 295 296 299 300 300 300 301 301 305 300 301 303 302 302 302 306 306 307 310 311 312 313
Wind_Speed
30 31 32 33 33 33 32 31 29 28 27 25 24 24 25 25 24 25 20 18 17 16 15 15 16 19 20 20 19 18 16 15 13 13 13 11 10 10 11 15 17 18 19
30 31 34 35 36 37 36 34 32 31 29 27 26 25 26 27 27 28 25 21 20 18 16 16 17 19 22 22 22 21 19 15 17 15 16 14 13 11 11 14 19 20 20
26 31 34 36 37 38 38 37 35 34 32 30 30 28 28 30 30 29 29 24 22 20 18 16 16 19 22 23 23 23 23 20 18 18 18 18 16 14 15 14 17 22 24
35 27 38 39 35 34 41 40 38 38 36 35 33 32 31 30 31 30 31 28 25 24 22 19 16 18 22 23 23 23 25 24 22 21 21 20 18 18 17 18 16 20 21
29 36 33 38 35 31 41 42 41 40 38 38 36 34 34 36 35 31 33 32 30 28 26 24 21 19 22 24 22 23 24 25 26 24 24 22 21 21 20 20 20 20 23
32 31 31 29 51 67 35 42 44 43 41 36 35 35 34 35 36 36 35 33 32 31 29 27 25 24 23 24 23 23 23 24 25 26 24 23 23 23 23 23 23 22 25
33 34 29 26 36 51 55 31 43 43 42 39 33 34 35 34 38 36 37 36 35 34 33 31 30 29 27 26 26 26 26 25 25 27 26 24 25 26 25 27 26 23 25
35 35 30 29 28 36 57 58 41 38 38 42 40 35 24 32 38 41 40 38 38 36 36 35 34 35 32 30 28 28 29 28 27 27 28 28 26 27 29 32 28 22 27
33 37 35 33 27 30 35 55 50 45 39 42 40 31 14 15 29 40 46 43 43 41 40 39 37 36 35 32 29 26 24 26 26 26 28 29 26 28 31 30 26 26 27
36 34 38 33 33 30 31 40 66 60 44 41 38 37 41 30 14 19 34 48 48 46 45 43 42 39 36 36 32 30 25 24 25 26 26 29 27 27 27 30 26 28 26
38 35 34 35 34 34 30 24 49 73 51 56 57 42 43 42 45 39 25 30 49 53 50 47 44 43 41 38 37 33 31 26 26 26 26 27 28 28 30 27 29 29 29
36 34 32 33 33 35 33 31 24 50 59 51 54 47 42 39 43 44 43 32 35 45 56 51 48 47 44 41 39 34 33 28 27 26 26 26 29 31 29 29 32 31 30
34 32 29 28 29 33 36 35 36 41 42 39 46 49 49 46 41 38 44 45 39 34 40 48 50 46 46 43 41 35 30 30 27 27 27 27 27 30 33 32 29 30 30
28 26 25 25 26 27 32 37 40 39 36 36 41 44 45 44 44 36 22 37 33 48 40 38 35 40 42 43 39 34 31 29 27 27 27 27 27 27 30 31 30 33 35
24 24 23 26 24 23 25 30 37 39 38 39 39 36 39 38 39 29 51 59 29 39 45 37 37 36 34 37 35 34 32 30 29 28 26 25 25 26 28 30 32 34 38
21 21 21 23 18 18 20 23 26 31 37 36 32 31 32 30 29 30 42 50 40 36 35 33 32 35 35 35 34 33 32 30 31 31 28 27 26 26 27 29 34 35 38
14 13 12 11 6 11 14 19 21 22 27 29 30 28 27 27 30 34 38 49 49 35 37 43 38 39 35 37 40 37 33 33 34 33 30 31 30 27 27 28 31 36 38
14 12 10 7 5 7 11 15 19 20 19 20 24 26 22 26 30 31 34 44 55 41 34 34 45 43 40 38 37 34 34 33 34 34 34 33 33 30 30 30 29 30 36
24 20 18 14 11 6 5 9 12 14 17 22 20 23 27 26 28 30 34 34 44 39 40 46 47 45 46 38 39 38 36 33 32 30 32 34 33 32 32 32 31 31 30
35 34 31 29 24 18 11 6 2 10 11 14 15 18 21 27 29 32 33 30 33 39 40 42 45 52 44 37 36 39 37 36 33 33 31 29 30 30 31 32 31 30 31
43 43 40 39 37 32 27 20 14 11 10 9 8 9 11 21 27 29 33 35 39 39 44 41 42 42 40 40 43 42 40 37 33 34 33 31 27 29 33 33 33 34 36
44 44 45 44 43 44 34 32 27 25 18 16 15 12 6 2 6 19 27 29 38 43 40 35 36 38 35 37 40 42 41 38 33 34 35 33 32 31 32 37 38 37 35
39 42 43 44 43 40 37 37 39 37 35 31 27 23 21 16 14 12 7 5 9 29 30 36 32 25 28 29 30 34 37 35 34 32 33 34 34 33 32 32 32 32 33
39 40 41 39 39 38 34 35 35 37 38 37 36 32 28 25 21 18 16 16 16 13 12 10 3 6 4 13 15 25 21 26 30 31 33 31 35 33 33 33 35 35 35
36 37 37 38 38 38 36 32 30 32 33 34 33 32 30 29 24 21 19 19 19 20 17 11 11 5 6 12 9 6 9 13 14 17 21 22 27 27 29 31 34 37 39
34 34 34 36 36 36 35 33 31 32 30 30 29 30 30 26 24 23 22 23 23 22 16 12 10 8 5 4 6 8 7 4 3 9 12 12 18 18 10 20 23 27 30
Wind_Direction
254 250 247 243 241 238 236 233 231 230 228 226 220 219 219 215 215 214 214 214 210 212 221 224 225 222 221 222 221 222 220 221 224 233 238 245 245 241 234 231 201 201 206
260 259 258 252 246 243 241 239 236 235 233 231 228 222 221 221 217 216 220 219 215 214 218 225 227 224 225 225 226 225 225 233 235 245 242 248 249 252 250 249 217 206 205
260 253 254 258 255 251 246 245 243 240 237 233 232 226 223 222 222 218 221 222 219 215 221 225 226 223 224 228 229 231 230 243 246 247 241 248 252 257 262 255 245 216 214
284 279 250 245 249 255 256 251 246 244 239 236 232 228 222 219 221 221 220 222 227 223 218 223 225 226 226 228 232 237 239 244 250 251 246 250 255 258 261 259 254 230 221
285 277 268 241 235 261 259 251 249 244 242 240 236 232 227 222 224 225 224 224 226 229 226 227 224 224 228 232 235 238 241 247 250 248 249 250 254 253 255 255 255 242 222
276 276 278 261 236 237 260 252 249 247 245 243 243 237 232 231 229 226 228 229 228 231 234 233 228 226 230 236 241 241 242 246 249 246 248 251 253 255 251 251 254 254 223
280 274 264 268 260 237 241 237 253 249 248 245 239 239 235 231 230 230 233 235 236 235 238 238 238 235 235 236 241 245 247 244 249 245 247 249 255 252 250 245 246 252 223
280 274 265 262 248 275 237 237 243 244 249 248 237 232 230 232 231 231 234 238 239 239 240 238 239 242 241 243 244 241 246 247 250 250 248 246 251 254 252 236 236 251 227
275 273 269 254 257 248 246 219 232 234 243 242 241 231 219 223 232 236 233 237 239 239 240 240 240 241 243 244 247 244 243 247 247 254 252 254 257 257 249 230 238 241 237
280 271 269 262 249 247 252 236 223 236 245 251 255 244 236 235 237 247 242 239 240 239 238 239 241 242 242 245 242 243 242 246 245 252 256 256 254 257 253 237 241 238 245
285 279 270 266 254 242 248 256 229 230 238 251 240 243 238 235 233 242 255 253 238 239 238 237 239 242 243 244 247 244 244 242 247 249 252 255 258 256 249 243 237 235 238
290 285 274 265 258 247 236 235 229 225 230 239 232 242 241 237 232 232 238 251 256 248 238 239 239 241 242 244 248 247 247 244 246 249 250 251 251 254 250 251 239 233 236
301 295 284 269 259 248 240 229 230 236 245 243 244 246 248 249 241 241 237 241 253 261 253 242 242 243 244 245 244 247 247 246 245 248 249 250 250 251 247 248 247 233 238
304 305 296 283 266 250 242 239 235 234 243 251 253 249 249 248 247 245 237 235 239 250 255 250 249 249 247 246 242 243 242 245 243 246 245 247 247 249 248 248 241 243 239
297 303 301 291 276 262 248 242 243 241 239 244 254 256 254 258 260 268 259 257 291 250 255 248 251 253 248 245 242 242 242 244 243 241 240 245 250 251 250 249 248 245 243
304 300 290 299 284 267 261 254 252 248 245 242 248 256 254 259 266 257 247 232 238 240 245 254 253 259 257 254 249 251 247 244 245 240 237 240 243 249 252 251 249 248 246
337 324 311 326 292 279 271 265 260 258 253 248 245 250 251 254 258 246 239 222 221 237 247 256 272 258 259 261 254 255 248 244 244 238 237 240 242 247 252 254 253 250 250
31 24 14 4 334 290 283 279 274 264 252 246 247 245 246 250 248 240 242 234 223 236 260 268 268 264 263 261 252 251 246 245 242 240 234 238 241 248 254 251 253 254 250
54 52 50 43 34 14 330 301 287 265 248 241 237 232 233 240 244 247 243 243 240 236 253 258 263 269 269 258 251 249 240 240 240 241 240 239 244 252 245 245 249 256 254
65 61 61 63 63 62 69 74 208 242 223 214 216 215 216 222 227 229 230 240 242 233 240 234 247 260 262 260 248 238 234 237 241 242 244 248 250 248 242 248 251 253 252
66 65 64 64 66 65 68 75 80 104 132 144 175 209 233 245 247 243 239 233 233 239 234 241 235 247 248 247 241 238 235 237 241 244 248 248 245 245 250 251 250 251 256
62 65 65 62 61 65 72 75 80 84 94 96 95 95 102 82 265 259 248 239 239 240 233 234 236 234 234 234 242 230 230 233 234 236 241 242 243 250 252 254 252 254 256
64 62 60 60 60 61 64 66 72 73 77 78 80 82 83 78 80 86 109 185 218 229 230 228 225 216 224 220 213 222 231 230 229 235 242 246 249 256 261 262 263 261 260
60 61 61 60 60 57 56 60 62 65 68 68 67 66 69 70 75 78 84 92 87 85 55 60 99 178 266 227 211 210 214 216 224 234 244 252 253 252 247 252 259 260 262
61 60 60 59 58 55 54 52 56 58 59 61 61 56 56 52 55 66 72 72 73 77 75 58 56 62 340 324 308 227 264 240 229 248 258 260 261 265 262 257 255 258 259
58 57 58 58 56 53 53 54 51 53 55 54 52 49 48 41 41 47 51 52 57 60 64 67 55 53 57 7 329 327 298 314 278 264 265 270 262 271 272 261 252 253 257